Location: Hoyos del Collado
(40.3594°N, 5.2003°W)
Time: 13:09:58
(UTC+00:00)

ISS - Pass Details

Date: 30 June 2024
Orbit: 410 x 424 km, 51.6° (Epoch: 13 July)

Event Time Altitude Azimuth Distance (km) Brightness Sun altitude
Exits shadow 01:01:26 15° 64° (ENE) 1,234 -1.0 -25.9°
Drops below altitude 10° 01:02:04 10° 61° (ENE) 1,485 -0.5 -25.9°
Sets 01:04:12 0° 57° (ENE) 2,353 0.7 -25.8°
